FW3572 Weather Reports


time (UTC)temp
C
wind
direction
speed
KPH
gust
KPH
rain 1hr
cm
rain 24hr
cm
rain mn
cm
humidity
%
barometer
mb
20260906034522 23 213 4.8 9.7 0.00 0.20 0.20 100 1014.8
20260906034018 23 180 3.2 12.9 0.00 0.20 0.20 100 1014.9
20260906033519 23 227 1.6 12.9 0.00 0.20 0.20 100 1015.0
20260906033030 23 235 3.2 11.3 0.00 0.20 0.20 100 1014.9
20260906032518 23 240 3.2 11.3 0.00 0.20 0.20 100 1014.7
20260906032019 23 207 1.6 11.3 0.00 0.20 0.20 100 1014.7
20260906031518 23 219 3.2 12.9 0.00 0.20 0.20 100 1014.9
20260906031018 23 228 1.6 8.0 0.03 0.20 0.20 100 1015.0
20260906030518 23 236 3.2 6.4 0.03 0.20 0.20 100 1015.1
20260906030018 23 236 0.0 0.0 0.03 0.20 0.20 100 1015.2
20260906025517 23 236 0.0 0.0 0.03 0.20 0.20 100 1015.2
20260906025019 23 237 0.0 0.0 0.03 0.20 0.20 100 1015.3
20260906024532 23 237 0.0 0.0 0.03 0.20 0.20 100 1015.2
20260906024016 23 237 0.0 4.8 0.03 0.20 0.20 100 1015.1
20260906023516 23 237 0.0 8.0 0.03 0.20 0.20 100 1015.1
20260906023019 23 236 0.0 6.4 0.03 0.20 0.20 100 1015.1
20260906022516 23 206 0.0 6.4 0.03 0.20 0.20 100 1015.2
20260906022019 23 194 0.0 6.4 0.03 0.20 0.20 100 1015.1
20260906021517 23 224 0.0 6.4 0.03 0.20 0.20 100 1015.3
20260906021016 23 220 1.6 8.0 0.00 0.18 0.18 100 1015.3
20260906020516 23 236 1.6 8.0 0.00 0.18 0.18 100 1015.1
20260906020015 23 242 3.2 6.4 0.00 0.18 0.18 100 1015.2
20260906015514 23 248 0.0 4.8 0.00 0.18 0.18 100 1015.1
20260906015015 24 257 0.0 6.4 0.00 0.18 0.18 100 1015.1
20260906014524 24 200 0.0 6.4 0.00 0.18 0.18 100 1015.1
20260906014013 24 288 1.6 6.4 0.00 0.18 0.18 100 1015.1
20260906013514 23 253 1.6 6.4 0.00 0.18 0.18 100 1015.0
20260906013034 24 233 0.0 6.4 0.00 0.18 0.18 100 1014.9
20260906012517 23 234 3.2 8.0 0.00 0.18 0.18 100 1014.9
20260906012014 23 192 3.2 11.3 0.00 0.18 0.18 100 1015.1
20260906011518 24 167 3.2 9.7 0.00 0.18 0.18 100 1015.2
20260906011013 24 227 4.8 9.7 0.00 0.18 0.18 100 1015.3
20260906010514 24 188 4.8 16.1 0.00 0.18 0.18 100 1015.4
20260906010013 24 161 4.8 16.1 0.00 0.18 0.18 100 1015.5
20260906005512 24 165 3.2 16.1 0.00 0.18 0.18 100 1015.7
20260906005012 23 165 8.0 20.9 0.00 0.18 0.18 100 1015.9
20260906004511 23 142 6.4 24.1 0.00 0.18 0.18 100 1015.9
20260906004012 23 181 12.9 24.1 0.00 0.18 0.18 100 1016.0
20260906003511 23 157 8.0 24.1 0.00 0.18 0.18 100 1016.1
20260906003012 23 135 14.5 24.1 0.00 0.18 0.18 100 1016.1
20260906002509 24 163 9.7 20.9 0.00 0.18 0.18 100 1016.1
20260906002008 24 181 8.0 20.9 0.00 0.18 0.18 100 1016.0
20260906001506 25 222 8.0 17.7 0.00 0.18 0.18 100 1016.0
20260906001005 25 246 8.0 27.4 0.00 0.18 0.18 100 1015.8
20260906000506 26 208 8.0 27.4 0.00 0.18 0.18 100 1016.1
20260906000004 26 94 0.0 3.2 0.00 0.18 0.18 100 1015.3
20260905235506 26 96 0.0 6.4 0.00 0.18 0.18 100 1015.3
20260905235004 26 44 1.6 9.7 0.00 0.18 0.18 100 1015.5
20260905234504 26 119 3.2 25.7 0.00 0.18 0.18 100 1015.7
20260905234003 26 51 8.0 25.7 0.00 0.18 0.18 100 1015.8
20260905233503 27 323 9.7 22.5 0.00 0.18 0.18 100 1015.8
20260905233003 27 97 1.6 11.3 0.00 0.18 0.18 100 1015.2
20260905232503 27 104 3.2 6.4 0.00 0.18 0.18 100 1014.8
20260905232003 27 132 0.0 6.4 0.00 0.18 0.18 100 1014.6
20260905231503 27 132 3.2 9.7 0.00 0.18 0.18 100 1014.5
20260905231002 27 153 3.2 8.0 0.00 0.18 0.18 100 1014.6
20260905230503 27 163 4.8 9.7 0.00 0.18 0.18 100 1014.6
20260905230002 26 144 3.2 9.7 0.00 0.18 0.18 100 1014.5
20260905225502 26 130 4.8 11.3 0.00 0.18 0.18 100 1014.4
20260905225002 26 117 3.2 11.3 0.00 0.18 0.18 100 1014.5
20260905224503 26 156 3.2 11.3 0.00 0.18 0.18 100 1014.8
20260905224001 26 130 4.8 11.3 0.00 0.18 0.18 100 1014.8
20260905223501 26 150 3.2 16.1 0.00 0.18 0.18 100 1014.9
20260905223002 26 109 4.8 20.9 0.00 0.18 0.18 100 1015.0
20260905222501 26 133 6.4 20.9 0.00 0.18 0.18 100 1014.7
20260905222100 26 136 4.8 14.5 0.00 0.18 0.18 100 1014.5
20260905221615 26 126 1.6 11.3 0.03 0.18 0.18 100 1014.2
20260905221102 26 122 3.2 11.3 0.03 0.18 0.18 100 1013.7
20260905220600 26 117 3.2 16.1 0.03 0.18 0.18 100 1013.6
20260905220059 26 111 4.8 16.1 0.03 0.18 0.18 100 1013.6
20260905215602 26 122 3.2 9.7 0.05 0.18 0.18 100 1013.9
20260905215058 26 98 0.0 6.4 0.13 0.18 0.18 100 1014.1
20260905214601 26 93 3.2 8.0 0.18 0.18 0.18 100 1014.1
20260905214101 26 51 1.6 8.0 0.18 0.18 0.18 100 1014.4
20260905213558 26 5 1.6 8.0 0.18 0.18 0.18 100 1014.6
20260905213105 26 217 0.0 4.8 0.18 0.18 0.18 100 1014.9
20260905212558 26 248 0.0 3.2 0.18 0.18 0.18 100 1014.8
20260905212059 26 252 1.6 8.0 0.18 0.18 0.18 100 1015.1
20260905211601 26 30 0.0 0.0 0.15 0.15 0.15 100 1015.0
20260905211057 26 30 0.0 0.0 0.15 0.15 0.15 100 1014.5
20260905210557 26 30 0.0 0.0 0.15 0.15 0.15 100 1014.6
20260905210059 27 30 0.0 6.4 0.15 0.15 0.15 100 1014.6
20260905205054 28 307 3.2 11.3 0.05 0.05 0.05 100 1014.7
20260905204555 29 233 4.8 16.1 0.00 0.00 0.00 100 1014.4
20260905204053 29 343 3.2 17.7 0.00 0.00 0.00 100 1014.5
20260905203553 30 181 1.6 22.5 0.00 0.00 0.00 100 1014.4
20260905203055 30 155 9.7 22.5 0.00 0.00 0.00 100 1014.1
20260905202654 30 150 6.4 20.9 0.00 0.00 0.00 100 1014.3
20260905202055 30 146 9.7 20.9 0.00 0.00 0.00 100 1013.9
20260905201612 31 102 9.7 22.5 0.00 0.00 0.00 100 1014.0
20260905201052 31 126 12.9 27.4 0.00 0.00 0.00 100 1013.9
20260905200552 31 119 12.9 27.4 0.00 0.00 0.00 100 1013.7
20260905200054 31 152 14.5 33.8 0.00 0.00 0.00 100 1013.3
20260905195553 31 174 19.3 33.8 0.00 0.00 0.00 100 1013.4
20260905195050 31 136 9.7 29.0 0.00 0.00 0.00 100 1013.7
20260905194550 31 153 11.3 29.0 0.00 0.00 0.00 100 1014.0
20260905194051 31 111 11.3 29.0 0.00 0.00 0.00 100 1014.1
20260905193550 31 130 11.3 29.0 0.00 0.00 0.00 100 1014.1
20260905193056 31 133 16.1 29.0 0.00 0.00 0.00 100 1014.5
20260905192546 31 105 11.3 24.1 0.00 0.00 0.00 100 1014.5
20260905192045 31 151 11.3 24.1 0.00 0.00 0.00 100 1014.3
20260905191546 31 101 8.0 25.7 0.00 0.00 0.00 100 1014.4
20260905191045 31 194 12.9 24.1 0.00 0.00 0.00 100 1014.6
20260905190545 32 153 11.3 19.3 0.00 0.00 0.00 100 1014.6
20260905190043 32 121 6.4 19.3 0.00 0.00 0.00 100 1014.6
20260905185542 31 93 8.0 19.3 0.00 0.00 0.00 100 1014.5
20260905185041 31 124 8.0 19.3 0.00 0.00 0.00 100 1014.6
20260905184544 31 116 6.4 17.7 0.00 0.08 0.00 100 1014.5
20260905184041 31 151 4.8 16.1 0.00 0.08 0.00 100 1014.4
20260905183541 32 124 4.8 16.1 0.00 0.08 0.00 100 1014.3
20260905183039 32 336 1.6 16.1 0.00 0.08 0.00 100 1014.4
20260905182537 33 111 3.2 14.5 0.00 0.08 0.00 100 1014.5
20260905182036 33 141 8.0 14.5 0.00 0.08 0.00 100 1014.6
20260905181535 34 125 1.6 9.7 0.00 0.08 0.00 100 1014.6
20260905181037 33 163 1.6 11.3 0.00 0.08 0.00 100 1014.6
20260905180530 34 195 0.0 6.4 0.00 0.08 0.00 100 1014.7
20260905180029 34 227 0.0 8.0 0.00 0.08 0.00 100 1014.8
20260905175530 33 273 1.6 14.5 0.00 0.08 0.00 100 1014.8
20260905175027 33 246 0.0 14.5 0.00 0.08 0.00 100 1014.8
20260905174525 34 298 1.6 12.9 0.00 0.08 0.00 100 1014.9
20260905174024 33 236 3.2 12.9 0.00 0.08 0.00 100 1015.0
20260905173522 33 237 1.6 14.5 0.00 0.08 0.00 100 1015.0
20260905173020 33 192 3.2 16.1 0.00 0.08 0.00 100 1015.0
20260905172519 33 241 8.0 17.7 0.00 0.08 0.00 100 1015.1
20260905172019 33 253 3.2 14.5 0.00 0.08 0.00 100 1015.1
20260905171518 34 178 0.0 20.9 0.00 0.08 0.00 100 1015.1
20260905171015 33 227 1.6 20.9 0.00 0.08 0.00 100 1015.4
20260905170513 33 240 1.6 12.9 0.00 0.08 0.00 100 1015.3
20260905170012 33 244 4.8 17.7 0.00 0.08 0.00 100 1015.4
20260905165511 33 232 8.0 17.7 0.00 0.08 0.00 100 1015.4
20260905165011 33 195 1.6 9.7 0.00 0.08 0.00 100 1015.5
20260905164507 33 240 3.2 11.3 0.00 0.08 0.00 100 1015.6
20260905164008 33 307 1.6 16.1 0.00 0.08 0.00 100 1015.6
20260905163504 32 242 6.4 19.3 0.00 0.08 0.00 100 1015.7
20260905163002 32 250 6.4 19.3 0.00 0.08 0.00 100 1015.8
20260905162501 32 288 1.6 14.5 0.00 0.08 0.00 100 1015.8
20260905162000 32 247 1.6 16.1 0.00 0.08 0.00 100 1016.0
20260905161605 32 297 1.6 16.1 0.00 0.08 0.00 100 1016.1
20260905161100 32 257 4.8 12.9 0.00 0.08 0.00 100 1016.2
20260905160600 32 167 3.2 12.9 0.00 0.08 0.00 100 1016.2
20260905160100 32 233 4.8 12.9 0.00 0.08 0.00 100 1016.2
20260905155558 32 294 4.8 12.9 0.00 0.08 0.00 100 1016.2
20260905155056 32 227 6.4 16.1 0.00 0.08 0.00 100 1016.3
20260905154616 31 244 6.4 17.7 0.00 0.08 0.00 100 1016.3
20260905154056 31 244 6.4 20.9 0.00 0.08 0.00 100 1016.4
20260905153552 31 246 9.7 20.9 0.00 0.08 0.00 100 1016.5
20260905153052 31 211 3.2 14.5 0.00 0.08 0.00 100 1016.5
20260905152551 31 238 4.8 19.3 0.00 0.08 0.00 100 1016.6
20260905152047 31 252 8.0 19.3 0.00 0.08 0.00 100 1016.6
20260905151546 31 232 4.8 11.3 0.00 0.08 0.00 100 1016.5
20260905151043 31 150 1.6 11.3 0.00 0.08 0.00 100 1016.7
20260905150542 31 221 3.2 19.3 0.00 0.08 0.00 100 1016.6
20260905150040 31 188 6.4 19.3 0.00 0.08 0.00 100 1016.7
20260905145539 31 235 0.0 17.7 0.00 0.08 0.00 100 1016.6
20260905145037 31 226 4.8 14.5 0.00 0.08 0.00 100 1016.6
20260905144536 31 231 3.2 12.9 0.00 0.08 0.00 100 1016.5
20260905144035 30 191 1.6 16.1 0.00 0.08 0.00 100 1016.5
20260905143533 30 202 6.4 16.1 0.00 0.08 0.00 100 1016.6
20260905143033 30 216 3.2 16.1 0.00 0.08 0.00 100 1016.6
20260905142529 30 219 4.8 20.9 0.00 0.08 0.00 100 1016.6
20260905142028 30 234 9.7 20.9 0.00 0.08 0.00 100 1016.6
20260905141533 30 225 1.6 12.9 0.00 0.08 0.00 100 1016.5
20260905141026 30 177 6.4 14.5 0.00 0.08 0.00 100 1016.5
20260905140523 30 159 4.8 11.3 0.00 0.08 0.00 100 1016.6
20260905140024 30 184 3.2 11.3 0.00 0.08 0.00 100 1016.7
20260905135520 29 212 3.2 12.9 0.00 0.08 0.00 100 1016.8
20260905135021 29 185 3.2 12.9 0.00 0.08 0.00 100 1016.7
20260905134517 29 215 1.6 8.0 0.00 0.08 0.00 100 1016.6
20260905134016 28 236 1.6 11.3 0.00 0.08 0.00 100 1016.7
20260905133516 28 188 1.6 11.3 0.00 0.08 0.00 100 1016.6
20260905133016 28 229 3.2 8.0 0.00 0.08 0.00 100 1016.6
20260905132514 28 218 1.6 11.3 0.00 0.08 0.00 100 1016.6
20260905132013 28 200 1.6 8.0 0.00 0.08 0.00 100 1016.6
20260905131513 28 207 3.2 8.0 0.00 0.08 0.00 100 1016.6
20260905131012 28 232 1.6 6.4 0.00 0.08 0.00 100 1016.6
20260905130514 28 202 0.0 8.0 0.00 0.08 0.00 100 1016.7
20260905130012 27 253 3.2 9.7 0.00 0.08 0.00 100 1016.6
20260905125511 27 224 0.0 4.8 0.00 0.08 0.00 100 1016.7
20260905125011 27 223 0.0 4.8 0.00 0.08 0.00 100 1016.7
20260905124511 27 221 0.0 0.0 0.00 0.08 0.00 100 1016.7
20260905124010 27 225 0.0 4.8 0.00 0.08 0.00 100 1016.6
20260905123511 27 225 0.0 4.8 0.00 0.08 0.00 100 1016.7
20260905123016 26 225 0.0 6.4 0.00 0.08 0.00 100 1016.7
20260905122513 26 223 0.0 6.4 0.00 0.08 0.00 100 1016.6
20260905122010 26 222 0.0 6.4 0.00 0.08 0.00 100 1016.6
20260905121510 26 207 0.0 0.0 0.00 0.08 0.00 100 1016.7
20260905121010 26 207 0.0 0.0 0.00 0.08 0.00 100 1016.7
20260905120512 26 207 0.0 0.0 0.00 0.08 0.00 100 1016.4
20260905120009 26 207 0.0 0.0 0.00 0.08 0.00 100 1016.5
20260905115509 26 207 0.0 0.0 0.00 0.08 0.00 100 1016.5
20260905115009 26 207 0.0 0.0 0.00 0.08 0.00 100 1016.4
20260905114510 26 207 0.0 0.0 0.00 0.08 0.00 100 1016.3
20260905114009 26 207 0.0 0.0 0.00 0.08 0.00 100 1016.3
20260905113509 26 207 0.0 0.0 0.00 0.08 0.00 100 1016.2
20260905113008 26 207 0.0 0.0 0.00 0.08 0.00 100 1016.1
20260905112509 26 207 0.0 0.0 0.00 0.08 0.00 100 1016.1
20260905112013 26 207 0.0 0.0 0.00 0.08 0.00 100 1016.1
20260905111508 26 207 0.0 0.0 0.00 0.08 0.00 100 1016.0
20260905111007 25 207 0.0 0.0 0.00 0.08 0.00 100 1016.0
20260905110511 25 207 0.0 0.0 0.00 0.08 0.00 100 1015.9
20260905110008 26 207 0.0 0.0 0.00 0.08 0.00 100 1015.9
20260905105506 26 207 0.0 0.0 0.00 0.08 0.00 100 1015.9
20260905105009 25 206 0.0 0.0 0.00 0.08 0.00 100 1015.7
20260905104506 26 206 0.0 0.0 0.00 0.08 0.00 100 1015.7
20260905104010 25 206 0.0 0.0 0.00 0.08 0.00 100 1015.6
20260905103505 25 206 0.0 0.0 0.00 0.08 0.00 100 1015.6
20260905103004 25 206 0.0 0.0 0.00 0.08 0.00 100 1015.6
20260905102505 26 206 0.0 0.0 0.00 0.08 0.00 100 1015.6
20260905102009 26 206 0.0 0.0 0.00 0.08 0.00 100 1015.7
20260905101502 26 206 0.0 0.0 0.00 0.08 0.00 100 1015.7
20260905101002 26 206 0.0 0.0 0.00 0.08 0.00 100 1015.6
20260905100502 26 206 0.0 0.0 0.00 0.08 0.00 100 1015.6
20260905100004 26 206 0.0 0.0 0.00 0.08 0.00 100 1015.5
20260905095501 26 206 0.0 0.0 0.00 0.08 0.00 100 1015.5
20260905095003 26 206 0.0 0.0 0.00 0.08 0.00 100 1015.7
20260905094500 26 206 0.0 0.0 0.00 0.08 0.00 100 1015.6
20260905094001 26 206 0.0 0.0 0.00 0.08 0.00 100 1015.6
20260905093501 26 206 0.0 0.0 0.00 0.08 0.00 100 1015.7
20260905093001 26 206 0.0 0.0 0.00 0.08 0.00 100 1015.7
20260905092602 26 206 0.0 0.0 0.00 0.08 0.00 100 1015.7
20260905092100 26 206 0.0 0.0 0.00 0.08 0.00 100 1015.6
20260905091636 26 206 0.0 0.0 0.00 0.08 0.00 100 1015.5
20260905091101 26 206 0.0 0.0 0.00 0.08 0.00 100 1015.6
20260905090600 26 206 0.0 0.0 0.00 0.08 0.00 100 1015.7
20260905090100 26 206 0.0 0.0 0.00 0.08 0.00 100 1015.6
20260905085600 26 206 0.0 0.0 0.00 0.08 0.00 100 1015.5
20260905085059 26 206 0.0 0.0 0.00 0.08 0.00 100 1015.5
20260905084613 26 205 0.0 0.0 0.00 0.08 0.00 100 1015.6
20260905084059 26 205 0.0 1.6 0.00 0.08 0.00 100 1015.6
20260905083559 26 205 0.0 3.2 0.00 0.08 0.00 100 1015.5
20260905083059 26 205 0.0 3.2 0.00 0.08 0.00 100 1015.5
20260905082558 26 208 0.0 3.2 0.00 0.08 0.00 100 1015.5
20260905082059 26 209 0.0 3.2 0.00 0.08 0.00 100 1015.5
20260905081558 26 209 0.0 0.0 0.00 0.08 0.00 100 1015.6
20260905081057 26 210 0.0 0.0 0.00 0.08 0.00 100 1015.6
20260905080558 26 210 0.0 0.0 0.00 0.08 0.00 100 1015.6
20260905080106 26 210 0.0 0.0 0.00 0.08 0.00 100 1015.6
20260905075557 26 210 0.0 0.0 0.00 0.08 0.00 100 1015.6
20260905075101 26 209 0.0 0.0 0.00 0.08 0.00 100 1015.7
20260905074614 26 209 0.0 1.6 0.00 0.08 0.00 100 1015.6
20260905074057 26 209 0.0 3.2 0.00 0.08 0.00 100 1015.7
20260905073655 26 209 0.0 3.2 0.00 0.08 0.00 100 1015.8
20260905073055 26 209 0.0 3.2 0.00 0.08 0.00 100 1015.7
20260905072556 26 209 0.0 3.2 0.00 0.08 0.00 100 1015.7
20260905072054 26 209 0.0 0.0 0.00 0.08 0.00 100 1015.7
20260905071555 26 209 0.0 1.6 0.00 0.08 0.00 100 1015.5
20260905071054 26 209 0.0 3.2 0.00 0.08 0.00 100 1015.6
20260905070553 26 209 0.0 3.2 0.00 0.08 0.00 100 1015.7
20260905070107 26 209 0.0 3.2 0.00 0.08 0.00 100 1015.7
20260905065552 26 209 0.0 3.2 0.00 0.08 0.00 100 1015.8
20260905065051 26 209 0.0 3.2 0.00 0.08 0.00 100 1015.8
20260905064551 26 209 0.0 3.2 0.00 0.08 0.00 100 1015.8
20260905064051 26 209 0.0 4.8 0.00 0.08 0.00 100 1015.8
20260905063550 26 209 0.0 4.8 0.00 0.08 0.00 100 1015.9
20260905063049 26 208 0.0 0.0 0.00 0.08 0.00 100 1016.0
20260905062549 26 208 0.0 0.0 0.00 0.08 0.00 100 1016.1
20260905062049 26 208 0.0 0.0 0.00 0.08 0.00 100 1016.1
20260905061600 26 208 0.0 0.0 0.00 0.08 0.00 100 1016.1
20260905061048 27 208 0.0 0.0 0.00 0.08 0.00 100 1016.2
20260905060547 27 208 0.0 0.0 0.00 0.08 0.00 100 1016.2
20260905060047 27 208 0.0 0.0 0.00 0.08 0.00 100 1016.2
20260905055545 27 208 0.0 0.0 0.00 0.08 0.00 100 1016.5
20260905055044 27 208 0.0 0.0 0.00 0.08 0.00 100 1016.5
20260905054550 27 208 0.0 0.0 0.00 0.08 0.00 100 1016.6
20260905054044 27 208 0.0 0.0 0.00 0.08 0.00 100 1016.7
20260905053542 27 208 0.0 0.0 0.00 0.08 0.00 100 1016.7
20260905053045 27 208 0.0 0.0 0.00 0.08 0.00 100 1016.8
20260905052540 27 208 0.0 0.0 0.00 0.08 0.00 100 1016.9
20260905052043 27 208 0.0 0.0 0.00 0.08 0.00 100 1017.0
20260905051544 27 208 0.0 0.0 0.00 0.08 0.00 100 1017.0
20260905051039 27 208 0.0 0.0 0.00 0.08 0.00 100 1017.0
20260905050541 27 207 0.0 0.0 0.00 0.08 0.00 100 1017.1
20260905050045 27 207 0.0 0.0 0.00 0.08 0.00 100 1017.2
20260905045540 27 207 0.0 0.0 0.00 0.08 0.00 100 1017.3
20260905045038 27 207 0.0 0.0 0.00 0.08 0.00 100 1017.1
20260905044540 27 207 0.0 0.0 0.00 0.08 0.00 100 1017.2
20260905044041 27 207 0.0 0.0 0.00 0.08 0.00 100 1017.1
20260905043537 27 207 0.0 0.0 0.00 0.08 0.00 100 1017.1
20260905043039 27 207 0.0 0.0 0.00 0.08 0.00 100 1017.1
20260905042540 27 207 0.0 0.0 0.00 0.08 0.00 100 1017.0
20260905042035 27 205 0.0 0.0 0.00 0.08 0.00 100 1017.1
20260905041541 27 159 0.0 3.2 0.00 0.08 0.00 100 1017.1
20260905041035 28 159 0.0 8.0 0.00 0.08 0.00 100 1017.1
20260905040535 28 135 0.0 11.3 0.00 0.08 0.00 100 1017.1
20260905040036 28 163 3.2 11.3 0.00 0.08 0.00 100 1017.0
20260905035535 28 167 1.6 8.0 0.00 0.08 0.00 100 1017.1
20260905035033 27 162 1.6 8.0 0.00 0.08 0.00 100 1017.2